Caldwell, NJ

4:43 PM EDT on August 17, 2019 (GMT -0400)
Essex County

Weather History for KCDW - June, 2019

Change the Weather History Date:

Sunday, June 9, 2019

  Actual Average Record
Temperature  
Mean Temperature 68 °F -  
Max Temperature 80 °F 80 °F 98 °F (2008)
Min Temperature 55 °F 55 °F 41 °F (1980)
Cooling Degree Days 2    
Growing Degree Days 18 (Base 50)    
Moisture  
Dew Point 47 °F    
Average Humidity 52    
Maximum Humidity 87    
Minimum Humidity 29    
Precipitation  
Precipitation 0.00 in - - ()
Sea Level Pressure  
Sea Level Pressure 30.30 in    
Wind  
Wind Speed 4 mph (ESE)    
Max Wind Speed 14 mph    
Max Gust Speed 23 mph    
Visibility 10 miles    
Events      
Averages and records for this station are not official NWS values.
T = Trace of Precipitation, MM = Missing Value Source: NWS Daily Summary

Daily Weather History Graph

Daily Weather History Graph

Search for Another Location

Airport or City:

Astronomy

Jun. 09, 2019 Rise Set
Actual Time 5:25 AM EDT 8:27 PM EDT
Civil Twilight 4:52 AM EDT 9:00 PM EDT
Nautical Twilight 4:09 AM EDT 9:43 PM EDT
Astronomical Twilight 3:20 AM EDT 10:33 PM EDT
Moon 12:02 PM EDT (6/9) 1:04 AM EDT (6/9)
Length of Visible Light 16h 08m
Length of Day
15h 02m
Waxing Crescent, 43% of the Moon is Illuminated
Jun 9
Waxing Crescent
Jun 10
First Quarter
Jun 17
Full
Jun 25
Last Quarter
Jul 2
New

Hourly Weather History & Observations

Time (EDT) Temp. Dew Point Humidity Pressure Visibility Wind Dir Wind Speed Gust Speed Precip Events Conditions
12:53 AM 60.1 °F 50.0 °F 69% 30.27 in 10.0 mi Calm Calm - N/A   Clear
1:53 AM 57.9 °F 51.1 °F 78% 30.27 in 10.0 mi Calm Calm - N/A   Clear
2:53 AM 57.0 °F 51.1 °F 81% 30.28 in 10.0 mi Calm Calm - N/A   Clear
3:53 AM 55.9 °F 52.0 °F 87% 30.28 in 10.0 mi Calm Calm - N/A   Clear
4:53 AM 55.9 °F 52.0 °F 87% 30.27 in 10.0 mi Calm Calm - N/A   Clear
5:53 AM 55.0 °F 51.1 °F 86% 30.30 in 10.0 mi NE 3.5 mph - N/A   Clear
6:53 AM 59.0 °F 51.1 °F 75% 30.31 in 10.0 mi NNE 4.6 mph - N/A   Clear
7:53 AM 64.9 °F 51.1 °F 61% 30.32 in 10.0 mi East 8.1 mph - N/A   Clear
8:53 AM 68.0 °F 52.0 °F 56% 30.33 in 10.0 mi ENE 8.1 mph - N/A   Clear
9:53 AM 73.0 °F 50.0 °F 44% 30.33 in 10.0 mi SE 8.1 mph - N/A   Clear
10:53 AM 75.0 °F 50.0 °F 41% 30.33 in 10.0 mi ESE 8.1 mph - N/A   Clear
11:53 AM 77.0 °F 50.0 °F 39% 30.32 in 10.0 mi ESE 12.7 mph - N/A   Clear
12:53 PM 79.0 °F 50.0 °F 36% 30.32 in 10.0 mi East 12.7 mph 20.7 mph N/A   Clear
1:53 PM 78.1 °F 48.0 °F 35% 30.31 in 10.0 mi East 13.8 mph 19.6 mph N/A   Clear
2:53 PM 80.1 °F 46.0 °F 30% 30.30 in 10.0 mi SSE 13.8 mph 19.6 mph N/A   Clear
3:53 PM 78.1 °F 44.1 °F 30% 30.30 in 10.0 mi SSE 11.5 mph 23.0 mph N/A   Clear
4:53 PM 77.0 °F 43.0 °F 30% 30.30 in 10.0 mi SSE 11.5 mph 20.7 mph N/A   Clear
5:53 PM 77.0 °F 42.1 °F 29% 30.29 in 10.0 mi South 11.5 mph 18.4 mph N/A   Clear
6:53 PM 75.0 °F 42.1 °F 31% 30.28 in 10.0 mi SE 9.2 mph - N/A   Clear
7:53 PM 72.0 °F 42.1 °F 34% 30.28 in 10.0 mi ESE 8.1 mph - N/A   Clear
8:53 PM 70.0 °F 39.9 °F 33% 30.29 in 10.0 mi SE 4.6 mph - N/A   Clear
9:53 PM 66.0 °F 41.0 °F 40% 30.29 in 10.0 mi ENE 3.5 mph - N/A   Clear
10:53 PM 61.0 °F 43.0 °F 52% 30.28 in 10.0 mi Calm Calm - N/A   Clear
11:53 PM 60.1 °F 46.9 °F 62% 30.27 in 10.0 mi Calm Calm - N/A   Clear